Location: Emblem
(62.4273°N, 6.4710°E)
Time: 20:18:13
(UTC+02:00)

Vanguard 2 - Pass Details

Date: 08 February 2023
Orbit: 553 x 2927 km, 32.9° (Epoch: 27 March)

Event Time Altitude Azimuth Distance (km) Brightness Sun altitude
Rises 21:11:54 0° 204° (SSW) 5,138 11.7 -29.3°
Reaches altitude 10° 21:17:27 10° 182° (S) 4,638 11.2 -29.9°
Enters shadow 21:18:55 12° 175° (S) 4,599 11.2 -30.1°
Maximum altitude 21:23:21 14° 155° (SSE) 4,720 - -30.5°
Drops below altitude 10° 21:30:06 10° 130° (SE) 5,449 - -31.2°
Sets 21:37:53 0° 111° (ESE) 6,723 - -31.9°
